(321033) = 2007 EG44 = 2008 PL7

Discovered at La Sagra on 2008-08-05 by OAM.

Orbit

Orbit type: Main Belt

Note: WebGL enabled browser required.

epoch2023-09-13.0
epoch JD2460200.5
perihelion date2023-06-02.55751
perihelion JD2460098.05751
argument of perihelion (°)107.30277
ascending node (°)189.32984
inclination (°)5.96173
eccentricity0.2029206
perihelion distance (AU)2.3273135
Tisserand w.r.t. Jupiter3.2
ΔV w.r.t. Earth (km/sec)9.8
semimajor axis (AU)2.9198012
mean anomaly (°)20.23737
mean daily motion (°/day)0.19754860
aphelion distance (AU)3.512
period (years)4.99
P-vector [x]0.44743086
P-vector [y]-0.85490668
P-vector [z]-0.26256466
Q-vector [x]0.89416000
Q-vector [y]0.42210939
Q-vector [z]0.14933706
absolute magnitude16.18
phase slope0.15
uncertainty0
referenceMPEC 2024-A34
observations used389
oppositions16
arc length (days)7429
first opposition used2003
last opposition used2023
residual rms (arc-secs)0.75
perturbers coarse indicatorM-v
perturbers precise indicator003Ek
first observation date used2003-07-08.0
last observation date used2023-11-09.0
computer nameMPCLINUX
JD of orbit computation2456966.848401
perihelion JD uncertainty (days)5.8502E-05
argument of perihelion uncertainty (°)4.9871E-05
ascending node uncertainty (°)4.7985E-05
inclination uncertainty (°)5.1098E-06
eccentricity uncertainty 5.1268E-08
perihelion distance uncertainty (AU)1.4792E-07
Minimum Orbit Intersection Distances (in AU)
for orbit epoch: 2460200.5, reference: E2024-A34
Mercury1.89036
Venus1.60922
Earth1.3197
Mars0.93668
Jupiter1.74973
Saturn5.60054
Uranus15.0861
Neptune26.6345

Observations

399 total observations over interval: 2003 07 08.40499 – 2023 11 09.117949
These data are available for download (format description).

Date (UT) J2000 RA J2000 Dec Magn Location Ref
2003 07 08.40499 20 50 41.58 -07 55 52.5 19.6 V 691 – Steward Observatory, Kitt Peak-Spacewatch MPS 258036
2003 07 08.42955 20 50 40.79 -07 55 54.1 19.7 V 691 – Steward Observatory, Kitt Peak-Spacewatch MPS 258036
2003 07 08.45173 20 50 40.09 -07 55 55.7 19.8 V 691 – Steward Observatory, Kitt Peak-Spacewatch MPS 258036
2003 08 02.45666 20 33 46.67 -09 15 28.7 20.0   608 – Haleakala-AMOS MPS 258036
2003 08 02.46697 20 33 46.23 -09 15 31.9 20.0   608 – Haleakala-AMOS MPS 258036
2003 08 02.47734 20 33 45.67 -09 15 34.6 19.9   608 – Haleakala-AMOS MPS 258036
2004 11 10.32250 04 10 17.39 +14 25 23.1 21.1 V 691 – Steward Observatory, Kitt Peak-Spacewatch MPS 258036
2004 11 10.34930 04 10 16.01 +14 25 16.8 20.7 V 691 – Steward Observatory, Kitt Peak-Spacewatch MPS 258036
2004 11 10.37587 04 10 14.68 +14 25 10.2 20.9 V 691 – Steward Observatory, Kitt Peak-Spacewatch MPS 258036
2007 03 09.32377 12 28 45.47 -04 21 10.3 20.8 V 691 – Steward Observatory, Kitt Peak-Spacewatch MPS 203265
2007 03 09.34137 12 28 44.77 -04 21 04.4 21.1 V 691 – Steward Observatory, Kitt Peak-Spacewatch MPS 203265
2007 03 09.35896 12 28 44.07 -04 20 58.7 20.9 V 691 – Steward Observatory, Kitt Peak-Spacewatch MPS 203265
2007 03 13.23240 12 26 11.15 -03 58 33.5 20.8 V 691 – Steward Observatory, Kitt Peak-Spacewatch MPS 203265
2007 03 13.25001 12 26 10.42 -03 58 27.1 20.6 V 691 – Steward Observatory, Kitt Peak-Spacewatch MPS 203265
2007 03 13.26762 12 26 09.67 -03 58 21.4 20.9 V 691 – Steward Observatory, Kitt Peak-Spacewatch MPS 203265
2007 03 26.29459 12 16 33.99 -02 34 13.0 20.4 V G96 – Mt. Lemmon Survey MPS 258036
2007 03 26.30287 12 16 33.60 -02 34 09.2 20.1 V G96 – Mt. Lemmon Survey MPS 258036
2007 03 26.31109 12 16 33.24 -02 34 06.1 20.0 V G96 – Mt. Lemmon Survey MPS 258036
2007 03 26.31928 12 16 32.84 -02 34 03.1 20.0 V G96 – Mt. Lemmon Survey MPS 258036
2007 04 07.26710 12 07 32.70 -01 13 37.9 20.3 V G96 – Mt. Lemmon Survey MPS 258036
2007 04 07.27341 12 07 32.44 -01 13 35.5 20.6 V G96 – Mt. Lemmon Survey MPS 258036
2007 04 07.27982 12 07 32.16 -01 13 33.0 20.4 V G96 – Mt. Lemmon Survey MPS 258036
2007 04 07.28607 12 07 31.87 -01 13 30.3 20.6 V G96 – Mt. Lemmon Survey MPS 258036
2007 04 15.25698 12 02 06.72 -00 23 23.6 20.6 V G96 – Mt. Lemmon Survey MPS 258036
2007 04 15.26576 12 02 06.39 -00 23 20.7 20.0 V G96 – Mt. Lemmon Survey MPS 258036
2007 04 15.27466 12 02 06.03 -00 23 17.1 19.6 V G96 – Mt. Lemmon Survey MPS 258036
2007 04 15.28345 12 02 05.67 -00 23 13.9 20.3 V G96 – Mt. Lemmon Survey MPS 258036
2008 06 07.35318 21 06 55.47 -08 00 50.4 20.7 V 703 – Catalina Sky Survey MPS 258036
2008 06 07.35979 21 06 55.69 -08 00 49.1 20.2 V 703 – Catalina Sky Survey MPS 258036
2008 06 07.36642 21 06 55.83 -08 00 47.7 21.2 V 703 – Catalina Sky Survey MPS 258036
2008 06 07.37307 21 06 55.94 -08 00 45.9 20.1 V 703 – Catalina Sky Survey MPS 258036
2008 06 30.32965 21 08 39.20 -07 05 10.6   691 – Steward Observatory, Kitt Peak-Spacewatch MPS 258036
2008 06 30.34723 21 08 38.93 -07 05 10.7   691 – Steward Observatory, Kitt Peak-Spacewatch MPS 258036
2008 06 30.36506 21 08 38.64 -07 05 10.3   691 – Steward Observatory, Kitt Peak-Spacewatch MPS 258036
2008 08 01.28925 20 50 52.18 -08 20 54.7 19.2   704 – Lincoln Laboratory ETS, New Mexico MPS 254145
2008 08 01.30037 20 50 51.66 -08 20 57.3 19.1   704 – Lincoln Laboratory ETS, New Mexico MPS 254145
2008 08 01.31153 20 50 51.11 -08 21 01.0 19.6   704 – Lincoln Laboratory ETS, New Mexico MPS 254145
2008 08 01.32261 20 50 50.60 -08 21 03.4 19.5   704 – Lincoln Laboratory ETS, New Mexico MPS 254145
2008 08 01.33383 20 50 50.08 -08 21 06.7 19.4   704 – Lincoln Laboratory ETS, New Mexico MPS 254145
2008 08 05.90957 20 47 25.33 -08 44 22.2 18.6 V J75 – OAM Observatory, La Sagra MPS 253654
2008 08 05.92417 20 47 24.63 -08 44 27.0 18.9 V J75 – OAM Observatory, La Sagra MPS 253654
2008 08 05.93862 20 47 23.99 -08 44 32.0 19.1 V J75 – OAM Observatory, La Sagra MPS 253654
2008 08 06.88855 20 46 42.03 -08 49 35.3 18.8 R 620 – Observatorio Astronomico de Mallorca MPS 253654
2008 08 06.89572 20 46 41.64 -08 49 37.6 19.1 R 620 – Observatorio Astronomico de Mallorca MPS 253654
2008 08 06.90290 20 46 41.32 -08 49 39.7 18.6 R 620 – Observatorio Astronomico de Mallorca MPS 253654
2008 08 06.91651 20 46 40.65 -08 49 44.0 19.5   A77 – Observatoire Chante-Perdrix, Dauban MPS 253654
2008 08 06.93065 20 46 40.03 -08 49 48.6 18.9   A77 – Observatoire Chante-Perdrix, Dauban MPS 253654
2008 08 06.94477 20 46 39.37 -08 49 53.6 19.0   A77 – Observatoire Chante-Perdrix, Dauban MPS 253654
2008 08 07.89313 20 45 57.78 -08 55 00.9 18.7 R A77 – Observatoire Chante-Perdrix, Dauban MPS 253654
2008 08 07.91325 20 45 56.83 -08 55 07.6 18.7 R A77 – Observatoire Chante-Perdrix, Dauban MPS 253654
2008 08 07.93341 20 45 55.91 -08 55 13.7 18.5 R A77 – Observatoire Chante-Perdrix, Dauban MPS 253654
2008 08 08.90205 20 45 13.82 -09 00 31.4 18.5 R A77 – Observatoire Chante-Perdrix, Dauban MPS 254145
2008 08 08.91715 20 45 13.11 -09 00 36.5 18.3 R A77 – Observatoire Chante-Perdrix, Dauban MPS 254145
2008 08 08.93227 20 45 12.45 -09 00 41.4 18.1 R A77 – Observatoire Chante-Perdrix, Dauban MPS 254145
2008 10 29.13049 20 59 05.10 -13 16 53.2 20.6 V G96 – Mt. Lemmon Survey MPS 261648
2008 10 29.13656 20 59 05.46 -13 16 52.4 20.3 V G96 – Mt. Lemmon Survey MPS 261648
2008 10 29.14272 20 59 05.89 -13 16 51.7 20.3 V G96 – Mt. Lemmon Survey MPS 261648
2008 10 29.14877 20 59 06.25 -13 16 51.0 20.5 V G96 – Mt. Lemmon Survey MPS 261648
2009 11 16.36103 04 12 24.76 +14 17 13.4 19.9 V G96 – Mt. Lemmon Survey MPS 303388
2009 11 16.37016 04 12 24.26 +14 17 11.7 20.5 V G96 – Mt. Lemmon Survey MPS 303388
2009 11 16.37933 04 12 23.76 +14 17 09.4 20.2 V G96 – Mt. Lemmon Survey MPS 303388
2009 11 16.39539 04 12 22.93 +14 17 05.7 20.6 V G96 – Mt. Lemmon Survey MPS 303388
2009 11 23.31910 04 06 20.77 +13 53 11.8 20.7 V G96 – Mt. Lemmon Survey MPS 305015
2009 11 23.32607 04 06 20.41 +13 53 10.4 20.1 V G96 – Mt. Lemmon Survey MPS 305015
2009 11 23.33301 04 06 20.05 +13 53 08.8 20.5 V G96 – Mt. Lemmon Survey MPS 305015
2009 11 23.33996 04 06 19.69 +13 53 07.6 20.1 V G96 – Mt. Lemmon Survey MPS 305015
2011 01 30.29730 08 05 36.96 +12 36 13.1 21.3 V G96 – Mt. Lemmon Survey MPS 368587
2011 01 30.30584 08 05 36.52 +12 36 14.7 21.6 V G96 – Mt. Lemmon Survey MPS 368587
2011 01 30.31450 08 05 36.13 +12 36 16.5 21.5 V G96 – Mt. Lemmon Survey MPS 368587
2011 01 30.32316 08 05 35.62 +12 36 18.3 21.6 V G96 – Mt. Lemmon Survey MPS 368587
2012 02 19.46325 12 44 26.56 -06 12 12.1 20.9 V 691 – Steward Observatory, Kitt Peak-Spacewatch MPS 413050
2012 02 19.47856 12 44 26.31 -06 12 10.0 21.0 V 691 – Steward Observatory, Kitt Peak-Spacewatch MPS 413050
2012 02 19.49388 12 44 26.02 -06 12 06.6 21.0 V 691 – Steward Observatory, Kitt Peak-Spacewatch MPS 413050
2012 02 23.40332 12 43 13.34 -05 59 40.2 21.1 V 691 – Steward Observatory, Kitt Peak-Spacewatch MPS 413050
2012 02 23.42126 12 43 12.93 -05 59 37.0 21.3 V 691 – Steward Observatory, Kitt Peak-Spacewatch MPS 413050
2012 02 23.43919 12 43 12.53 -05 59 33.0 21.1 V 691 – Steward Observatory, Kitt Peak-Spacewatch MPS 413050
2012 02 25.04765 12 42 37.18 -05 53 46.1 21.1   A14 – Les Engarouines Observatory MPS 414260
2012 02 25.05511 12 42 36.99 -05 53 44.3 20.8   A14 – Les Engarouines Observatory MPS 414260
2012 02 25.06258 12 42 36.78 -05 53 42.9 21.7   A14 – Les Engarouines Observatory MPS 414260
2012 02 27.38962 12 41 39.89 -05 44 36.6 20.9 V 691 – Steward Observatory, Kitt Peak-Spacewatch MPS 414260
2012 02 27.40757 12 41 39.36 -05 44 32.1 21.0 V 691 – Steward Observatory, Kitt Peak-Spacewatch MPS 414260
2012 02 27.42554 12 41 38.89 -05 44 27.9 21.1 V 691 – Steward Observatory, Kitt Peak-Spacewatch MPS 414260
2012 03 02.43754 12 39 46.11 -05 26 56.8 20.9 V 691 – Steward Observatory, Kitt Peak-Spacewatch MPS 414260
2012 03 02.45686 12 39 45.51 -05 26 52.3 21.1 V 691 – Steward Observatory, Kitt Peak-Spacewatch MPS 414260
2012 03 02.47620 12 39 44.93 -05 26 46.4 21.2 V 691 – Steward Observatory, Kitt Peak-Spacewatch MPS 414260
2012 04 29.18339 12 01 52.86 +00 19 05.4 20.9 V G96 – Mt. Lemmon Survey MPS 423660
